User: anonymous   Login
Location: Unspecified
(0.0000°N, 0.0000°E)
Time: 11:03:30
(UTC+00:00)
Language:

YUBELEINY 2 - Orbit

View from above orbital plane
View from above orbital plane
View from above satellite
View from above satellite

Ground track
Ground track

The orbit data is extracted from the following two-line orbital elements,

1 38735U 12041C   17269.17874442  .00000005  00000-0 -31990-4 0  9998
2 38735  82.4718 261.2073 0017010 164.3610 195.7998 12.42574945234245
Epoch (UTC): 26 September 2017 04:17:23
Eccentricity: 0.0017010
inclination: 82.4718°
perigee height: 1482 km
apogee height: 1509 km
right ascension of ascending node: 261.2073°
argument of perigee: 164.3610°
revolutions per day: 12.42574945
mean anomaly at epoch: 195.7998°
orbit number at epoch: 23424

The dashed part of the orbit path shows where the satellite is in the earth's shadow,  

DLR